EW6183 Weather Reports


time (UTC)temp
C
wind
direction
speed
KPH
gust
KPH
rain 1hr
cm
rain 24hr
cm
rain mn
cm
humidity
%
barometer
mb
20260503220045 14 284 3.2 16.1 0.00 0.00 0.00 35 1012.6
20260503214544 15 266 6.4 12.9 0.00 0.00 0.00 32 1012.6
20260503213045 15 205 4.8 12.9 0.00 0.00 0.00 33 1012.5
20260503211542 15 242 4.8 14.5 0.00 0.00 0.00 33 1012.4
20260503210044 15 253 4.8 16.1 0.00 0.00 0.00 34 1012.5
20260503204543 15 355 6.4 17.7 0.00 0.00 0.00 32 1012.3
20260503203041 15 248 4.8 14.5 0.00 0.00 0.00 34 1012.3
20260503201539 15 182 6.4 17.7 0.00 0.00 0.00 34 1012.5
20260503200038 15 232 4.8 12.9 0.00 0.00 0.00 35 1012.4
20260503194535 15 262 4.8 12.9 0.00 0.00 0.00 36 1012.5
20260503193040 15 217 6.4 17.7 0.00 0.00 0.00 35 1012.8
20260503191531 14 263 6.4 16.1 0.00 0.00 0.00 36 1013.0
20260503190028 13 223 3.2 16.1 0.00 0.00 0.00 41 1013.1
20260503184527 13 259 4.8 20.9 0.00 0.00 0.00 41 1013.2
20260503183022 13 273 3.2 11.3 0.00 0.00 0.00 42 1013.4
20260503181521 13 302 6.4 20.9 0.00 0.00 0.00 39 1013.3
20260503180020 12 261 3.2 17.7 0.00 0.00 0.00 43 1013.5
20260503174524 12 232 4.8 16.1 0.00 0.00 0.00 44 1013.5
20260503173023 12 261 3.2 12.9 0.00 0.00 0.00 42 1013.5
20260503171523 12 331 6.4 29.0 0.00 0.00 0.00 40 1013.4
20260503120144 7 5 1.6 9.7 0.00 0.00 0.00 61 1013.6
20260503081521 6 293 0.0 3.2 0.00 0.00 0.00 63 1011.2
20260503071511 7 307 0.0 6.4 0.00 0.00 0.00 60 1011.1
20260503060122 8 324 0.0 4.8 0.00 0.00 0.00 56 1011.4
20260503054601 8 340 1.6 4.8 0.00 0.00 0.00 55 1011.7
20260503053055 9 286 1.6 6.4 0.00 0.00 0.00 55 1011.6
20260503051555 9 286 1.6 8.0 0.00 0.00 0.00 54 1011.7
20260503050052 9 283 0.0 3.2 0.00 0.00 0.00 55 1011.7
20260503044547 9 275 0.0 4.8 0.00 0.00 0.00 55 1012.0
20260503043047 9 293 1.6 4.8 0.00 0.00 0.00 54 1012.1
20260503041545 10 14 0.0 6.4 0.00 0.00 0.00 55 1012.1
20260503040048 9 329 3.2 9.7 0.00 0.00 0.00 55 1012.0
20260503034541 9 284 1.6 8.0 0.00 0.00 0.00 59 1012.0
20260503033047 9 320 0.0 4.8 0.00 0.00 0.00 60 1012.0
20260503031541 9 298 0.0 1.6 0.00 0.00 0.00 61 1012.0
20260503030040 9 298 0.0 1.6 0.00 0.00 0.00 62 1011.9
20260503024540 9 298 0.0 3.2 0.00 0.00 0.00 64 1012.1
20260503023040 9 298 0.0 0.0 0.00 0.00 0.00 64 1012.1
20260503021539 9 298 0.0 0.0 0.00 0.00 0.00 63 1012.2
20260503020039 9 298 0.0 0.0 0.00 0.00 0.00 63 1012.0
20260503014538 9 298 0.0 0.0 0.00 0.00 0.00 68 1012.1
20260503013048 9 298 0.0 1.6 0.00 0.00 0.00 63 1012.0
20260503011540 9 298 0.0 0.0 0.00 0.00 0.00 69 1012.2
20260503010047 9 298 0.0 0.0 0.00 0.00 0.00 64 1011.9
20260503004535 10 298 0.0 0.0 0.00 0.00 0.00 65 1011.6
20260503003035 10 298 0.0 0.0 0.00 0.00 0.00 61 1011.5
20260503001535 11 298 0.0 0.0 0.00 0.00 0.00 57 1011.5
20260503000034 12 298 0.0 0.0 0.00 0.00 0.00 53 1011.3
20260502234533 12 297 0.0 0.0 0.00 0.00 0.00 50 1011.3
20260502233033 13 297 0.0 0.0 0.00 0.00 0.00 47 1011.3
20260502231532 13 297 0.0 1.6 0.00 0.00 0.00 46 1011.4
20260502230032 13 297 0.0 4.8 0.00 0.00 0.00 45 1011.3
20260502224531 13 313 3.2 8.0 0.00 0.00 0.00 43 1011.3
20260502223031 14 305 1.6 4.8 0.00 0.00 0.00 43 1011.2
20260502221530 15 336 3.2 17.7 0.00 0.00 0.00 41 1011.0